FW0917 Weather Reports


time (UTC)temp
F
wind
direction
speed
knots
gust
knots
rain 1hr
in
rain 24hr
in
rain mn
in
humidity
%
barometer
mb
20260504214204 69 228 7.0 11.3 0.00 0.00 0.00 32 1006.4
20260504213703 69 221 4.3 14.8 0.00 0.00 0.00 33 1006.3
20260504213204 69 213 4.3 15.6 0.00 0.00 0.00 33 1006.4
20260504212703 69 243 5.2 13.9 0.00 0.00 0.00 32 1006.6
20260504212202 69 222 4.3 10.4 0.00 0.00 0.00 33 1006.5
20260504211703 69 274 5.2 12.2 0.00 0.00 0.00 33 1006.6
20260504211203 69 263 6.1 17.4 0.00 0.00 0.00 32 1006.6
20260504210703 69 225 5.2 14.8 0.00 0.00 0.00 32 1006.5
20260504205703 70 198 4.3 12.2 0.00 0.00 0.00 32 1006.5
20260504205203 69 294 1.7 14.8 0.00 0.00 0.00 33 1006.4
20260504204703 70 220 6.1 12.2 0.00 0.00 0.00 31 1006.4
20260504204203 70 215 7.8 20.9 0.00 0.00 0.00 30 1006.4
20260504203704 71 202 7.8 17.4 0.00 0.00 0.00 31 1006.5
20260504203203 70 212 6.1 20.0 0.00 0.00 0.00 32 1006.4
20260504202204 68 221 3.5 10.4 0.00 0.00 0.00 33 1006.4
20260504201203 69 306 5.2 12.2 0.00 0.00 0.00 31 1006.5
20260504200703 70 191 6.1 18.2 0.00 0.00 0.00 31 1006.5
20260504200203 70 226 4.3 11.3 0.00 0.00 0.00 31 1006.5
20260504195703 70 198 4.3 17.4 0.00 0.00 0.00 30 1006.6
20260504195203 70 214 6.1 14.8 0.00 0.00 0.00 31 1006.5
20260504194703 70 207 3.5 11.3 0.00 0.00 0.00 31 1006.4
20260504194203 69 231 3.5 14.8 0.00 0.00 0.00 33 1006.7
20260504193703 68 210 5.2 17.4 0.00 0.00 0.00 32 1006.7
20260504193204 69 219 2.6 8.7 0.00 0.00 0.00 32 1006.7
20260504192703 70 220 6.1 14.8 0.00 0.00 0.00 30 1006.6
20260504192204 70 220 3.5 10.4 0.00 0.00 0.00 31 1006.6
20260504191704 70 309 2.6 17.4 0.00 0.00 0.00 30 1006.6
20260504191203 70 240 9.6 18.2 0.00 0.00 0.00 30 1006.6
20260504190703 69 235 2.6 10.4 0.00 0.00 0.00 33 1006.6
20260504190204 70 254 4.3 11.3 0.00 0.00 0.00 30 1006.7
20260504185703 70 211 7.0 13.0 0.00 0.00 0.00 31 1006.6
20260504185203 69 259 8.7 20.0 0.00 0.00 0.00 30 1006.7
20260504184703 68 234 7.8 17.4 0.00 0.00 0.00 30 1006.8
20260504183703 70 189 7.8 20.0 0.00 0.00 0.00 29 1006.9
20260504183204 70 229 4.3 11.3 0.00 0.00 0.00 30 1007.0
20260504182703 70 220 5.2 15.6 0.00 0.00 0.00 31 1007.0
20260504182203 69 196 6.1 17.4 0.00 0.00 0.00 29 1007.2
20260504181704 69 208 2.6 17.4 0.00 0.00 0.00 32 1007.1
20260504180703 69 209 6.1 13.0 0.00 0.00 0.00 29 1007.2
20260504175703 69 221 7.8 17.4 0.00 0.00 0.00 28 1007.2
20260504175204 68 202 4.3 12.2 0.00 0.00 0.00 31 1007.3
20260504174704 68 211 7.8 17.4 0.00 0.00 0.00 29 1007.3
20260504174203 68 229 8.7 17.4 0.00 0.00 0.00 30 1007.2
20260504173704 68 228 5.2 14.8 0.00 0.00 0.00 30 1007.4
20260504173203 67 253 7.0 22.6 0.00 0.00 0.00 31 1007.4
20260504172203 66 207 8.7 20.0 0.00 0.00 0.00 30 1007.6
20260504171703 67 216 10.4 19.1 0.00 0.00 0.00 32 1007.6
20260504171203 67 233 3.5 20.0 0.00 0.00 0.00 31 1007.7
20260504170203 66 204 8.7 20.0 0.00 0.00 0.00 32 1007.8
20260504160203 63 205 5.2 19.1 0.00 0.00 0.00 34 1008.3
20260504150703 61 208 7.8 22.6 0.00 0.00 0.00 39 1008.8
20260504150203 61 218 6.1 13.9 0.00 0.00 0.00 42 1008.9
20260504141204 59 228 6.1 17.4 0.00 0.00 0.00 42 1009.3
20260504140703 59 217 5.2 17.4 0.00 0.00 0.00 43 1009.3
20260504140203 58 196 5.2 19.1 0.00 0.00 0.00 43 1009.3
20260504130704 55 204 4.3 12.2 0.00 0.00 0.00 48 1009.7
20260504120203 48 228 2.6 10.4 0.00 0.00 0.00 55 1010.5
20260504110704 46 214 6.1 12.2 0.00 0.00 0.00 58 1010.1
20260504110203 45 213 4.3 8.7 0.00 0.00 0.00 60 1010.1
20260504100203 42 204 0.0 0.9 0.00 0.00 0.00 63 1010.2
20260504081225 45 210 1.7 2.6 0.00 0.00 0.00 57 1010.0
20260504070203 45 220 1.7 2.6 0.00 0.00 0.00 55 1009.6
20260504060203 45 230 2.6 11.3 0.00 0.00 0.00 55 1009.9
20260504050704 43 172 0.9 1.7 0.00 0.00 0.00 55 1009.9
20260504050203 43 225 1.7 2.6 0.00 0.00 0.00 55 1009.9
20260504045704 42 219 1.7 2.6 0.00 0.00 0.00 54 1010.0
20260504045204 42 228 1.7 4.3 0.00 0.00 0.00 55 1009.9
20260504044704 42 214 1.7 2.6 0.00 0.00 0.00 55 1010.0
20260504044203 42 217 2.6 6.1 0.00 0.00 0.00 56 1010.2
20260504043703 42 215 2.6 6.1 0.00 0.00 0.00 57 1010.2
20260504042704 41 212 2.6 5.2 0.00 0.00 0.00 58 1010.2
20260504042203 41 214 1.7 6.1 0.00 0.00 0.00 58 1010.2
20260504040705 40 224 2.6 4.3 0.00 0.00 0.00 60 1010.0
20260504040208 40 223 1.7 2.6 0.00 0.00 0.00 60 1009.8
20260504035703 39 221 2.6 5.2 0.00 0.00 0.00 59 1009.8
20260504035203 39 238 2.6 5.2 0.00 0.00 0.00 62 1009.8
20260504034704 38 221 1.7 2.6 0.00 0.00 0.00 64 1009.7
20260504033703 37 225 1.7 2.6 0.00 0.00 0.00 66 1009.6
20260504033203 36 219 1.7 4.3 0.00 0.00 0.00 68 1009.6
20260504032703 35 210 1.7 5.2 0.00 0.00 0.00 72 1009.6
20260504032204 34 244 1.7 2.6 0.00 0.00 0.00 76 1009.6
20260504031703 34 218 0.9 2.6 0.00 0.00 0.00 78 1009.6
20260504031203 34 216 0.0 0.0 0.00 0.00 0.00 78 1009.6
20260504030703 34 216 0.0 0.0 0.00 0.00 0.00 78 1009.5
20260504025703 34 216 0.0 0.0 0.00 0.00 0.00 78 1009.5
20260504025204 34 217 0.0 0.0 0.00 0.00 0.00 79 1009.6
20260504024704 34 216 0.0 0.0 0.00 0.00 0.00 80 1009.5
20260504024204 34 216 0.0 0.0 0.00 0.00 0.00 78 1009.5
20260504023203 34 238 0.0 0.9 0.00 0.00 0.00 77 1009.6
20260504022704 35 220 0.0 0.0 0.00 0.00 0.00 76 1009.6
20260504022204 35 219 0.0 0.0 0.00 0.00 0.00 76 1009.5
20260504021705 35 219 0.0 0.0 0.00 0.00 0.00 75 1009.5
20260504021204 35 219 0.0 0.0 0.00 0.00 0.00 74 1009.4
20260504020703 36 219 0.0 0.0 0.00 0.00 0.00 73 1009.4
20260504015703 36 219 0.0 0.0 0.00 0.00 0.00 73 1009.3
20260504015203 36 220 0.0 0.0 0.00 0.00 0.00 73 1009.3
20260504014203 36 220 0.0 0.0 0.00 0.00 0.00 73 1009.2
20260504013703 37 219 0.0 0.0 0.00 0.00 0.00 74 1009.1
20260504013203 37 219 0.0 0.0 0.00 0.00 0.00 74 1009.1
20260504012704 37 219 0.0 0.0 0.00 0.00 0.00 73 1009.0
20260504012203 37 219 0.0 0.0 0.00 0.00 0.00 74 1009.0
20260504011704 37 219 0.0 0.0 0.00 0.00 0.00 71 1009.0
20260504011204 38 219 0.0 0.0 0.00 0.00 0.00 69 1008.9
20260504010203 38 219 0.0 1.7 0.00 0.00 0.00 67 1008.8
20260504005704 38 219 0.9 1.7 0.00 0.00 0.00 67 1008.8
20260504005204 39 219 0.9 1.7 0.00 0.00 0.00 66 1008.8
20260504004705 39 219 0.9 1.7 0.00 0.00 0.00 65 1008.6
20260504004203 40 219 0.0 1.7 0.00 0.00 0.00 64 1008.6
20260504003704 40 220 0.9 1.7 0.00 0.00 0.00 62 1008.5
20260504003204 41 218 0.0 1.7 0.00 0.00 0.00 62 1008.5
20260504002204 42 228 0.9 2.6 0.00 0.00 0.00 57 1008.4
20260504001703 42 233 0.9 1.7 0.00 0.00 0.00 57 1008.5
20260504000703 43 233 0.9 1.7 0.00 0.00 0.00 56 1008.3
20260504000204 44 234 0.9 1.7 0.00 0.00 0.00 55 1008.2
20260503235704 45 278 0.0 0.9 0.00 0.00 0.00 54 1008.2
20260503234703 46 290 0.0 0.0 0.00 0.00 0.00 52 1008.1
20260503233203 47 289 0.0 0.0 0.00 0.00 0.00 48 1008.2
20260503232704 48 290 0.0 0.9 0.00 0.00 0.00 46 1008.1
20260503232204 48 290 0.0 1.7 0.00 0.00 0.00 44 1008.1
20260503231704 48 288 0.0 1.7 0.00 0.00 0.00 44 1007.9
20260503231203 48 286 0.9 2.6 0.00 0.00 0.00 43 1007.9
20260503230203 48 334 0.0 1.7 0.00 0.00 0.00 43 1007.8
20260503225704 48 288 0.9 2.6 0.00 0.00 0.00 44 1007.7
20260503225204 48 300 0.9 1.7 0.00 0.00 0.00 42 1007.7
20260503224704 48 305 0.9 1.7 0.00 0.00 0.00 44 1007.7
20260503224203 48 304 0.0 1.7 0.00 0.00 0.00 44 1007.6
20260503223704 48 322 0.9 2.6 0.00 0.00 0.00 44 1007.6
20260503223204 48 289 1.7 2.6 0.00 0.00 0.00 43 1007.5
20260503222703 48 294 0.9 1.7 0.00 0.00 0.00 43 1007.5
20260503222204 48 295 0.9 2.6 0.00 0.00 0.00 43 1007.4
20260503221704 48 319 0.9 2.6 0.00 0.00 0.00 43 1007.4
20260503221204 48 294 1.7 2.6 0.00 0.00 0.00 43 1007.3
20260503220704 48 337 0.0 1.7 0.00 0.00 0.00 45 1007.3
20260503215703 48 313 0.9 1.7 0.00 0.00 0.00 44 1007.3